Weather History for KNUQ - August, 2013

Change the Weather History Date:

Monday, August 12, 2013

  Actual Average Record
Temperature  
Mean Temperature 67 °F 68 °F  
Max Temperature 75 °F 77 °F 91 °F (1998)
Min Temperature 59 °F 59 °F 49 °F (1945)
Degree Days  
Heating Degree Days 0    
Month to date heating degree days 3  
Since 1 June heating degree days 17  
Since 1 July heating degree days 4  
Cooling Degree Days 2    
Month to date cooling degree days 7  
Year to date cooling degree days 272  
Since 1 June cooling degree days 198  
Growing Degree Days 17 (Base 50)    
Moisture  
Dew Point 56 °F    
Average Humidity 70    
Maximum Humidity 87    
Minimum Humidity 53    
Precipitation  
Precipitation 0.00 in 0.00 in 0.01 in (2008)
Month to date precipitation 0.00 0.00  
Year to date precipitation 1.82 9.65  
Since 1 July precipitation T 0.02  
Sea Level Pressure  
Sea Level Pressure 29.99 in    
Wind  
Wind Speed 7 mph (North)    
Max Wind Speed 17 mph    
Max Gust Speed 22 mph    
Visibility 10 miles    
Events      
T = Trace of Precipitation, MM = Missing Value Source: NWS Daily Summary

Daily Weather History Graph

Daily Weather History Graph

Search for Another Location

Airport or City:

Trip Planner

Search our weather history database for the weather conditions in past years. The results will help you decide how hot, cold, wet, or windy it might be!

Date:

Astronomy

Aug. 12, 2013 Rise Set
Actual Time 6:22 AM PDT 8:03 PM PDT
Civil Twilight 5:54 AM PDT 8:31 PM PDT
Nautical Twilight 5:20 AM PDT 9:05 PM PDT
Astronomical Twilight 4:44 AM PDT 9:40 PM PDT
Moon 12:09 PM PDT (8/12) 11:09 PM PDT (8/12)
Length of Visible Light 14h 37m
Length of Day
13h 41m
Waxing Crescent, 32% of the Moon is Illuminated
Aug 12
Waxing Crescent
Aug 14
First Quarter
Aug 20
Full
Aug 28
Last Quarter
Sep 5
New

Hourly Weather History & Observations

Time (PDT) Temp. Dew Point Humidity Pressure Visibility Wind Dir Wind Speed Gust Speed Precip Events Conditions
12:56 AM 59.0 °F 55.0 °F 87% 30.01 in 10.0 mi Calm Calm - N/A   Overcast
1:23 AM 59.0 °F 55.4 °F 88% 29.99 in 10.0 mi Calm Calm - N/A   Scattered Clouds
1:56 AM 59.0 °F 55.9 °F 90% 29.99 in 10.0 mi NNW 3.5 mph - N/A   Scattered Clouds
2:05 AM 59.0 °F 55.4 °F 88% 29.98 in 10.0 mi Calm Calm - N/A   Mostly Cloudy
2:56 AM 60.1 °F 55.9 °F 86% 29.99 in 10.0 mi NNE 4.6 mph - N/A   Overcast
3:56 AM 60.1 °F 55.9 °F 86% 29.98 in 10.0 mi Calm Calm - N/A   Overcast
4:56 AM 60.1 °F 55.9 °F 86% 29.99 in 10.0 mi Calm Calm - N/A   Overcast
5:56 AM 60.1 °F 55.0 °F 83% 29.99 in 10.0 mi Calm Calm - N/A   Overcast
6:56 AM 60.1 °F 55.9 °F 86% 30.01 in 10.0 mi Calm Calm - N/A   Overcast
7:56 AM 61.0 °F 55.0 °F 81% 30.01 in 9.0 mi East 3.5 mph - N/A   Overcast
8:22 AM 62.6 °F 55.4 °F 77% 30.01 in 10.0 mi Calm Calm - N/A   Overcast
8:56 AM 63.0 °F 57.0 °F 81% 30.01 in 10.0 mi Calm Calm - N/A   Mostly Cloudy
9:10 AM 64.4 °F 55.4 °F 73% 30.00 in 10.0 mi East 3.5 mph - N/A   Scattered Clouds
9:56 AM 66.9 °F 55.9 °F 68% 30.01 in 10.0 mi NNW 6.9 mph - N/A   Clear
10:56 AM 68.0 °F 57.0 °F 68% 30.01 in 10.0 mi NNW 5.8 mph - N/A   Clear
11:56 AM 71.1 °F 57.0 °F 61% 30.01 in 10.0 mi North 6.9 mph - N/A   Clear
12:56 PM 73.9 °F 55.9 °F 53% 30.00 in 10.0 mi North 9.2 mph - N/A   Clear
1:56 PM 73.0 °F 57.9 °F 59% 29.99 in 10.0 mi NNW 13.8 mph - N/A   Clear
2:56 PM 75.0 °F 57.9 °F 55% 29.99 in 10.0 mi NNW 11.5 mph - N/A   Clear
3:56 PM 73.9 °F 57.0 °F 55% 29.98 in 10.0 mi NNW 12.7 mph - N/A   Clear
4:56 PM 73.9 °F 55.9 °F 53% 29.96 in 10.0 mi NNW 13.8 mph - N/A   Clear
5:56 PM 72.0 °F 57.0 °F 59% 29.96 in 10.0 mi NNW 15.0 mph - N/A   Clear
6:56 PM 69.1 °F 55.9 °F 63% 29.97 in 10.0 mi NNW 11.5 mph - N/A   Clear
7:56 PM 66.0 °F 55.9 °F 70% 29.99 in 10.0 mi NNW 9.2 mph - N/A   Clear
8:56 PM 63.0 °F 57.0 °F 81% 30.00 in 10.0 mi NW 6.9 mph - N/A   Clear
9:56 PM 61.0 °F 55.9 °F 83% 30.01 in 10.0 mi NNW 8.1 mph - N/A   Clear
10:56 PM 63.0 °F 55.9 °F 78% 30.01 in 10.0 mi North 6.9 mph - N/A   Clear
11:56 PM 60.1 °F 55.0 °F 83% 30.01 in 10.0 mi North 8.1 mph - N/A   Clear